This is the latest recevied weather packets stored in our database for station/object DB0RV-13. If no packets are shown the sender has not sent any weather packets the latest 1 day(s).
| Time | Temp. | Humidity | Pressure | Rain* | Wind** | Luminosity | Snow |
|---|---|---|---|---|---|---|---|
| 1836274675 | 15° C | 90% | 1021 hPa | - | 0.89 m/s, 309° | - | - |
| 1836274526 | 13.33° C | 90% | 1021 hPa | - | 0.45 m/s, 242° | - | - |
| 1836274375 | 14.44° C | 90% | 1021 hPa | - | 1.34 m/s, 296° | - | - |
| 1836274226 | 14.44° C | 88% | 1020.9 hPa | - | 1.34 m/s, 296° | - | - |
| 1836274076 | 13.89° C | 93% | 1021 hPa | - | 1.34 m/s, 311° | - | - |
| 1778022601 | 10° C | 88% | 1008.7 hPa | - | 0.89 m/s, 296° | - | - |
| 1778022302 | 10° C | 88% | 1008.7 hPa | - | 0.45 m/s, 283° | - | - |
| 1778022002 | 10° C | 88% | 1008.7 hPa | - | 0.89 m/s, 267° | - | - |
| 1778021701 | 10° C | 88% | 1008.7 hPa | - | 0.89 m/s, 249° | - | - |
| 1778021402 | 10° C | 87% | 1008.7 hPa | - | 0.89 m/s, 221° | - | - |
| 1778021102 | 10° C | 88% | 1008.8 hPa | - | 1.79 m/s, 205° | - | - |
| 1778020801 | 10° C | 88% | 1008.8 hPa | - | 1.34 m/s, 237° | - | - |
| 1778020502 | 10° C | 88% | 1008.8 hPa | - | 1.34 m/s, 242° | - | - |
| 1778020203 | 10° C | 88% | 1008.9 hPa | - | 0.89 m/s, 260° | - | - |
| 1778019901 | 10.56° C | 88% | 1008.9 hPa | - | 1.79 m/s, 240° | - | - |
| 1778019602 | 10.56° C | 88% | 1008.9 hPa | - | 1.79 m/s, 250° | - | - |
| 1778019302 | 10.56° C | 89% | 1008.9 hPa | - | 1.79 m/s, 271° | - | - |
| 1778019001 | 10.56° C | 88% | 1008.9 hPa | - | 1.79 m/s, 242° | - | - |
| 1778018702 | 10.56° C | 88% | 1008.8 hPa | - | 1.34 m/s, 266° | - | - |
| 1778018402 | 10.56° C | 88% | 1008.9 hPa | - | 0.89 m/s, 254° | - | - |
| 1778018101 | 10.56° C | 88% | 1008.8 hPa | - | 1.79 m/s, 245° | - | - |
| 1778017802 | 10.56° C | 88% | 1008.8 hPa | - | 1.79 m/s, 258° | - | - |
| 1778017502 | 10.56° C | 89% | 1008.8 hPa | - | 1.79 m/s, 243° | - | - |
| 1778017201 | 10° C | 89% | 1008.8 hPa | - | 1.34 m/s, 240° | - | - |
| 1778016902 | 10° C | 90% | 1008.9 hPa | - | 1.34 m/s, 240° | - | - |
* Rain since midnight (hover to see other rain measurements)
** Current wind speed in m/s (hover to see current wind gust speed)